Location: Stuttgart
(48.7758°N, 9.1829°E)
Time: 18:47:47
(UTC+02:00)

Iridium 51 - Visible Passes

Search period start: 28 May 2024 00:00
Search period end: 07 June 2024 00:00
Orbit: 434 x 634 km, 86.4° (Epoch: 27 May)

Date Brightness Start Highest point End Pass type
(mag) Time Alt. Az. Time Alt. Az. Time Alt. Az.
28 May 6.5 00:07:14 15° ESE 00:08:41 18° ENE 00:11:41 10° NE visible
28 May 4.9 01:42:37 40° SW 01:43:53 55° W 01:48:18 10° N visible
28 May 6.5 23:58:01 14° ESE 23:59:34 17° ENE 00:02:24 10° NE visible
29 May 4.8 01:33:25 41° SW 01:34:43 59° W 01:39:11 10° N visible
29 May 6.6 23:48:48 13° ESE 23:50:26 16° ENE 23:53:05 10° NE visible
30 May 4.7 01:24:11 42° SSW 01:25:32 64° W 01:30:02 10° N visible
30 May 6.7 23:39:32 12° ESE 23:41:17 15° ENE 23:43:44 10° NE visible
31 May 4.7 01:14:55 42° SSW 01:16:20 70° W 01:20:51 10° N visible
31 May 6.8 23:30:15 11° ESE 23:32:07 14° ENE 23:34:20 10° NE visible
01 Jun 4.6 01:05:38 41° SSW 01:07:07 75° W 01:11:39 10° N visible
01 Jun 6.8 23:20:59 10° E 23:22:55 13° ENE 23:24:52 10° NE visible
02 Jun 4.6 00:56:20 41° SSW 00:57:53 81° W 01:02:25 10° N visible
02 Jun 7.1 02:33:18 10° W 02:34:19 11° WNW 02:35:19 10° NW visible
02 Jun 6.8 23:12:07 10° E 23:13:43 12° ENE 23:15:19 10° NE visible
03 Jun 4.5 00:47:00 39° S 00:48:38 87° W 00:53:10 10° N visible
03 Jun 7.1 02:23:28 10° W 02:25:00 11° WNW 02:26:32 10° NW visible
03 Jun 6.9 23:03:21 10° E 23:04:29 11° ENE 23:05:38 10° ENE visible
04 Jun 4.5 00:37:39 38° S 00:39:22 86° E 00:43:53 10° N visible
04 Jun 7.0 02:13:46 10° W 02:15:40 12° WNW 02:17:34 10° NW visible
05 Jun 4.5 00:28:16 36° S 00:30:05 80° E 00:34:35 10° N visible
05 Jun 7.0 02:04:07 10° W 02:06:19 13° WNW 02:08:30 10° NW visible
06 Jun 4.6 00:18:52 34° S 00:20:46 74° E 00:25:14 10° N visible
06 Jun 7.0 01:54:30 10° WSW 01:56:57 14° WNW 01:59:23 10° NW visible
